EW3230 Weather Reports


Display with metric or nautical units.
time (UTC)temp
F
wind
direction
speed
MPH
gust
MPH
rain 1hr
in
rain 24hr
in
rain mn
in
humidity
%
barometer
mb
20260902124915 64 87 0.0 1.0 0.00 0.11 0.00 59 1021.7
20260902123914 64 92 0.0 0.0 0.00 0.11 0.00 59 1021.6
20260902122915 63 91 0.0 1.0 0.00 0.11 0.00 59 1021.8
20260902121913 63 263 0.0 0.0 0.00 0.11 0.00 59 1021.9
20260902120914 62 263 0.0 0.0 0.00 0.11 0.00 60 1022.1
20260902115914 62 262 0.0 0.0 0.00 0.11 0.00 60 1022.1
20260902114914 61 262 0.0 0.0 0.00 0.11 0.00 61 1021.9
20260902114410 60 263 0.0 0.0 0.00 0.11 0.00 61 1021.7
20260902113410 60 263 0.0 0.0 0.00 0.11 0.00 61 1021.7
20260902111907 59 262 0.0 0.0 0.00 0.11 0.00 61 1021.7
20260902111409 59 262 0.0 0.0 0.00 0.11 0.00 61 1021.5
20260902104908 59 263 0.0 0.0 0.00 0.11 0.00 61 1021.2
20260902103907 59 263 0.0 0.0 0.00 0.11 0.00 61 1021.1
20260902102908 59 263 0.0 0.0 0.00 0.11 0.00 61 1021.0
20260902101907 59 263 0.0 0.0 0.00 0.11 0.00 61 1020.9
20260902100901 59 263 0.0 0.0 0.00 0.11 0.00 61 1020.9
20260902095902 60 263 0.0 0.0 0.00 0.11 0.00 61 1021.0
20260902094901 60 263 0.0 0.0 0.00 0.11 0.00 61 1020.9
20260902093901 60 263 0.0 0.0 0.00 0.11 0.00 61 1020.8
20260902092901 60 263 0.0 1.0 0.00 0.11 0.00 61 1020.8
20260902091903 60 263 0.0 0.0 0.00 0.11 0.00 61 1020.6
20260902090902 60 262 0.0 0.0 0.00 0.11 0.00 61 1020.5
20260902090402 60 262 0.0 0.0 0.00 0.11 0.00 61 1020.4
20260902084900 61 263 0.0 0.0 0.00 0.11 0.00 61 1020.3
20260902083855 61 263 0.0 0.0 0.00 0.11 0.00 61 1020.4
20260902082855 61 263 0.0 1.0 0.00 0.11 0.00 61 1020.2
20260902080856 60 263 0.0 0.0 0.00 0.11 0.00 61 1020.5
20260902075900 60 262 0.0 0.0 0.00 0.11 0.00 61 1020.3
20260902074855 60 263 0.0 1.0 0.00 0.11 0.00 61 1020.3
20260902074356 60 263 0.0 0.0 0.00 0.11 0.00 61 1020.4
20260902072857 60 300 0.0 0.0 0.00 0.11 0.00 61 1020.3
20260902072357 60 63 0.0 0.0 0.00 0.11 0.00 61 1020.1
20260902070851 60 78 0.0 0.0 0.00 0.11 0.00 62 1019.9
20260902065851 60 77 0.0 0.0 0.00 0.11 0.00 62 1020.0
20260902064849 59 78 0.0 0.0 0.00 0.11 0.00 62 1020.0
20260902063848 59 78 0.0 0.0 0.00 0.11 0.00 62 1020.2
20260902062851 59 79 0.0 0.0 0.00 0.11 0.00 62 1020.3
20260902061850 59 78 0.0 0.0 0.00 0.11 0.00 62 1020.3
20260902060849 59 63 0.0 0.0 0.00 0.11 0.00 63 1020.4
20260902055849 59 63 0.0 1.0 0.00 0.11 0.00 63 1020.5
20260902054848 59 349 0.0 0.0 0.00 0.11 0.00 63 1020.4
20260902053844 59 328 0.0 1.0 0.00 0.11 0.00 63 1020.3
20260902052843 60 328 0.0 0.0 0.00 0.11 0.00 63 1020.1
20260902051845 60 328 0.0 0.0 0.00 0.11 0.00 63 1020.0
20260902050850 60 328 0.0 0.0 0.00 0.11 0.00 63 1019.7
20260902050843 60 328 0.0 0.0 0.00 0.11 0.00 63 1019.8
20260902045344 60 328 0.0 0.0 0.00 0.11 0.00 63 1019.6
20260902043843 60 305 0.0 0.0 0.00 0.11 0.00 63 1019.7
20260902042845 60 306 0.0 0.0 0.00 0.11 0.00 63 1019.5
20260902041842 59 51 0.0 0.0 0.00 0.11 0.00 63 1019.2
20260902040841 59 51 0.0 0.0 0.00 0.11 0.00 63 1019.4
20260902035840 59 51 0.0 1.0 0.00 0.11 0.11 63 1019.4
20260902034841 59 65 0.0 0.0 0.00 0.11 0.11 63 1019.4
20260902033840 59 65 0.0 0.0 0.00 0.11 0.11 64 1019.5
20260902032852 59 65 0.0 0.0 0.00 0.11 0.11 64 1019.4
20260902032339 60 67 0.0 0.0 0.00 0.11 0.11 63 1019.3
20260902030839 60 66 0.0 0.0 0.00 0.11 0.11 64 1019.4
20260902025839 60 67 0.0 0.0 0.00 0.11 0.11 64 1019.4
20260902024838 60 67 0.0 0.0 0.00 0.11 0.11 64 1019.3
20260902023837 60 67 0.0 0.0 0.00 0.11 0.11 64 1019.3
20260902022837 60 67 0.0 0.0 0.00 0.11 0.11 64 1019.1
20260902021837 60 60 0.0 0.0 0.00 0.11 0.11 64 1019.2
20260902020837 60 60 0.0 0.0 0.00 0.11 0.11 64 1018.9
20260902015837 60 60 0.0 0.0 0.00 0.11 0.11 64 1018.7
20260902014837 60 49 0.0 1.0 0.00 0.11 0.11 64 1018.8
20260902014340 60 49 0.0 0.0 0.00 0.11 0.11 65 1019.1
20260902012836 60 50 0.0 0.0 0.00 0.11 0.11 64 1019.1
20260902011833 60 48 0.0 0.0 0.00 0.11 0.11 65 1019.1
20260902010844 61 49 0.0 0.0 0.00 0.11 0.11 64 1018.7
20260902005831 61 50 0.0 0.0 0.00 0.11 0.11 64 1018.9
20260902004832 61 46 0.0 0.0 0.00 0.11 0.11 64 1019.1
20260902004331 61 46 0.0 0.0 0.00 0.11 0.11 64 1019.1
20260902002831 62 49 0.0 1.0 0.00 0.11 0.11 64 1019.1
20260902002334 62 54 0.0 3.0 0.00 0.11 0.11 63 1019.1
20260902001333 62 57 0.0 2.0 0.00 0.11 0.11 62 1019.0
20260901235832 62 75 0.0 1.0 0.00 0.11 0.11 62 1018.8
20260901234828 62 76 0.0 0.0 0.00 0.11 0.11 62 1018.7
20260901233825 63 56 0.0 1.0 0.00 0.11 0.11 62 1018.5
20260901232825 63 52 0.0 1.0 0.00 0.11 0.11 62 1018.5
20260901231825 63 52 0.0 1.0 0.00 0.11 0.11 62 1018.6
20260901230826 63 58 0.0 1.0 0.00 0.11 0.11 63 1018.5
20260901225825 63 56 0.0 1.0 0.00 0.11 0.11 63 1018.5
20260901224825 63 60 0.0 1.0 0.01 0.11 0.11 63 1018.4
20260901223826 63 228 0.0 1.0 0.01 0.11 0.11 63 1018.5
20260901222826 63 228 0.0 0.0 0.01 0.11 0.11 63 1018.6
20260901221822 63 228 0.0 0.0 0.01 0.11 0.11 64 1018.7
20260901220819 63 228 0.0 0.0 0.01 0.11 0.11 64 1018.9
20260901220321 63 228 0.0 0.0 0.01 0.11 0.11 63 1019.0
20260901214819 63 228 0.0 0.0 0.00 0.10 0.10 64 1018.8
20260901213819 63 228 0.0 0.0 0.00 0.10 0.10 64 1019.1
20260901212818 63 228 0.0 0.0 0.00 0.10 0.10 64 1018.8
20260901211819 63 228 0.0 1.0 0.00 0.10 0.10 64 1018.6
20260901211319 63 206 0.0 0.0 0.00 0.10 0.10 64 1018.5
20260901205817 63 206 0.0 0.0 0.00 0.10 0.10 64 1018.3
20260901204813 64 205 0.0 0.0 0.00 0.10 0.10 64 1018.2
20260901203812 64 206 0.0 0.0 0.00 0.10 0.10 64 1018.2
20260901202812 64 183 0.0 0.0 0.01 0.10 0.10 64 1018.3
20260901202311 64 183 0.0 0.0 0.01 0.10 0.10 64 1018.2
20260901200810 63 183 0.0 0.0 0.01 0.10 0.10 65 1018.1
20260901200311 64 183 0.0 0.0 0.01 0.10 0.10 65 1018.0
20260901194809 63 183 0.0 0.0 0.01 0.10 0.10 65 1018.2
20260901193809 63 183 0.0 0.0 0.02 0.10 0.10 66 1018.1
20260901192810 64 183 0.0 1.0 0.03 0.09 0.09 66 1018.0
20260901192306 64 242 0.0 0.0 0.08 0.09 0.09 65 1018.0
20260901190805 64 242 0.0 0.0 0.08 0.09 0.09 65 1017.9
20260901185804 64 198 0.0 0.0 0.08 0.09 0.09 66 1017.8
20260901184803 64 198 0.0 1.0 0.08 0.09 0.09 67 1017.7
20260901184303 64 198 0.0 1.0 0.07 0.08 0.08 69 1017.8
20260901182806 64 198 0.0 1.0 0.05 0.06 0.06 72 1017.9
20260901181804 65 141 0.0 1.0 0.00 0.01 0.01 74 1017.9
20260901180803 66 214 0.0 0.0 0.00 0.01 0.01 74 1018.0
20260901175805 67 215 0.0 1.0 0.00 0.01 0.01 74 1018.0
20260901174802 67 215 0.0 0.0 0.00 0.01 0.01 75 1018.1
20260901173802 67 173 0.0 1.0 0.00 0.01 0.01 75 1018.0
20260901172808 67 198 0.0 1.0 0.00 0.01 0.01 75 1018.0
20260901172802 67 173 0.0 1.0 0.00 0.01 0.01 75 1018.0
20260901170758 67 207 0.0 1.0 0.00 0.01 0.01 74 1017.9
20260901165757 69 205 0.0 1.0 0.00 0.01 0.01 73 1017.7
20260901164757 70 212 0.0 1.0 0.00 0.01 0.01 72 1017.7
20260901163757 71 229 0.0 1.0 0.00 0.01 0.01 73 1017.8
20260901162759 71 123 0.0 1.0 0.00 0.01 0.01 74 1017.6
20260901161756 71 145 0.0 1.0 0.00 0.01 0.01 74 1017.5
20260901161256 71 142 0.0 1.0 0.00 0.01 0.01 74 1017.6
20260901160300 71 193 0.0 1.0 0.00 0.01 0.01 74 1017.9
20260901155259 71 165 0.0 1.0 0.00 0.01 0.01 73 1017.8
20260901153753 72 166 0.0 1.0 0.00 0.01 0.01 74 1017.8
20260901153253 72 135 0.0 1.0 0.00 0.01 0.01 74 1017.8
20260901151805 72 135 0.0 1.0 0.00 0.01 0.01 72 1017.8
20260901150752 71 155 0.0 1.0 0.01 0.01 0.01 72 1017.8
20260901145752 71 134 0.0 1.0 0.01 0.01 0.01 71 1018.0
20260901144755 71 67 0.0 0.0 0.01 0.01 0.01 69 1018.3
20260901144749 71 97 0.0 0.0 0.01 0.01 0.01 71 1018.3
20260901142749 70 67 0.0 1.0 0.01 0.01 0.01 67 1018.2
20260901141750 70 43 0.0 2.0 0.01 0.01 0.01 67 1018.3
20260901140747 70 36 0.0 0.0 0.00 0.00 0.00 65 1018.3
20260901135745 70 36 0.0 0.0 0.00 0.00 0.00 66 1018.0
20260901134747 69 35 0.0 0.0 0.00 0.00 0.00 67 1018.1
20260901133746 69 36 0.0 1.0 0.00 0.00 0.00 68 1018.1
20260901132745 69 30 0.0 1.0 0.00 0.00 0.00 68 1018.1
20260901131743 69 13 0.0 0.0 0.00 0.00 0.00 68 1018.1
20260901130744 69 13 0.0 1.0 0.00 0.00 0.00 69 1018.0
20260901125744 69 49 0.0 1.0 0.00 0.00 0.00 68 1018.1